Location: ??????
(56.0120°N, 39.1740°E)
Time: 01:03:33
(UTC+00:00)

USA 234 - Pass Details

Date: 14 April 2026
Orbit: 1102 x 1106 km, 123.0° (Epoch: 4 January)

Event Time Altitude Azimuth Distance (km) Brightness Sun altitude
Rises 22:20:43 0° 116° (ESE) 3,915 6.0 -23.2°
Reaches altitude 10° 22:23:12 10° 119° (ESE) 2,959 5.4 -23.2°
Maximum altitude 22:29:44 73° 204° (SSW) 1,150 3.1 -22.9°
Drops below altitude 10° 22:36:18 10° 289° (WNW) 2,969 5.5 -22.6°
Sets 22:38:48 0° 292° (WNW) 3,929 6.2 -22.5°
